Vorticity
13 9 9 10 13 8 8 9 9 11 10 11 12 7 2 6 8 6 2 8 6 2 7 -2 51 -9 1 -16 -1 56 18 18 5 -4 8 -12 -3 4 5 4 2 4 4
3 7 10 9 9 9 9 6 6 4 5 4 5 6 11 16 13 9 10 10 2 1 -5 5 6 26 39 1 18 -12 16 24 23 10 -7 -14 -6 15 11 3 8 5 2
5 5 4 4 5 6 7 7 5 5 5 5 8 10 8 6 10 12 12 13 13 11 4 1 -2 8 26 15 28 -5 -11 8 23 -1 14 -7 23 36 2 -7 8 3 2
8 9 8 6 4 5 6 8 7 7 7 7 8 9 10 9 10 10 9 12 14 16 11 4 3 12 -3 -5 -2 46 -3 -6 14 18 30 0 22 14 -12 -7 11 5 9
7 7 6 5 5 8 11 11 13 11 8 5 8 11 9 10 8 10 10 7 8 14 17 2 17 3 6 5 12 -6 34 20 11 4 3 26 -1 22 5 4 8 2 7
11 12 12 13 13 11 10 10 10 10 11 14 12 8 10 9 10 10 10 9 7 8 9 15 2 18 3 -6 3 -9 -3 28 -9 22 18 -1 16 9 -4 3 6 8 15
10 10 10 10 11 11 10 10 11 11 12 13 10 11 11 12 9 8 10 11 10 10 13 2 13 13 2 13 6 -4 9 9 -2 14 4 21 36 48 33 6 14 7 7
10 10 10 10 9 9 8 8 8 10 10 9 10 11 9 9 10 10 9 8 9 10 10 10 11 14 17 7 5 0 4 8 11 5 6 6 9 -0 9 9 6 13 7
6 7 8 7 6 5 7 8 8 10 9 9 9 8 10 10 8 9 9 9 10 9 9 10 10 10 10 14 18 19 14 13 9 7 6 23 11 7 10 -1 2 7 5
7 5 2 1 -0 10 10 9 11 10 12 10 9 9 8 8 11 10 8 8 8 8 9 9 9 9 8 10 10 12 12 12 11 8 6 7 7 4 3 8 4 1 -0
19 20 19 19 15 12 12 12 13 12 10 10 12 11 9 9 9 10 10 9 9 9 8 8 9 10 10 9 9 10 10 7 6 10 8 6 5 4 5 6 6 5 5
12 13 13 13 11 9 11 12 13 14 13 12 11 10 12 11 10 10 10 10 9 9 9 9 9 8 9 9 9 9 8 9 10 9 8 9 9 9 5 5 7 7 7
10 10 10 10 12 13 13 13 14 13 12 11 13 13 11 11 11 10 10 11 11 10 9 8 7 7 6 6 8 8 8 8 8 9 9 9 9 10 10 10 11 11 10
8 9 9 9 10 10 10 9 11 15 16 16 14 13 13 13 12 11 10 9 10 10 10 11 10 10 9 9 10 9 8 8 8 9 9 9 9 9 9 10 10 10 9
8 7 8 6 6 6 6 6 5 5 7 10 12 14 13 11 10 11 10 9 7 7 7 9 10 9 9 9 8 6 5 8 10 10 10 9 9 10 10 9 9 11 11
6 5 5 4 5 5 5 5 4 4 5 5 5 7 9 11 11 10 9 9 10 9 8 8 8 9 10 10 9 10 12 11 10 9 10 10 11 12 11 12 12 10 11
8 7 7 7 8 7 7 7 7 5 4 3 4 6 7 7 8 10 11 11 10 10 11 9 7 6 5 6 7 8 8 8 8 8 9 9 9 8 8 8 8 10 11
7 7 7 8 10 11 11 12 13 12 12 11 8 4 4 5 8 8 8 9 10 11 10 9 10 10 10 9 7 5 5 4 6 6 6 6 6 7 6 7 7 7 7
8 6 6 6 7 7 9 12 13 16 15 13 13 15 14 11 7 5 5 8 8 9 10 10 11 12 10 9 10 11 12 12 11 9 8 6 5 4 4 4 3 6 7
5 6 5 6 6 6 6 8 11 12 15 14 12 11 12 13 14 14 13 9 6 4 7 8 8 11 13 12 11 13 14 9 8 10 13 15 13 14 16 16 15 13 12
3 3 2 5 6 6 7 8 9 12 13 14 12 11 11 11 12 12 12 13 14 14 13 8 5 6 7 7 9 12 12 11 11 11 12 9 8 8 8 9 10 11 12
3 4 4 5 7 8 7 9 10 12 15 13 12 10 10 11 11 12 13 15 15 13 12 14 16 16 10 4 3 5 5 7 10 14 14 10 10 10 9 11 10 11 12
4 4 6 6 7 8 8 8 11 12 15 15 13 11 10 10 11 10 10 11 12 14 16 17 16 11 13 18 16 11 4 3 5 5 7 10 12 11 11 11 10 10 10
6 6 8 9 7 9 9 11 11 13 16 15 13 12 11 10 10 11 11 10 9 9 9 11 13 15 18 19 13 13 16 16 8 5 4 6 6 6 8 10 9 9 9
16 14 12 12 12 10 11 12 12 14 17 15 12 11 11 10 10 10 10 11 11 10 10 10 9 9 9 11 12 18 15 15 19 16 8 5 5 7 8 7 5 5 5
14 15 14 14 12 13 12 13 14 14 14 13 11 11 11 11 10 10 10 13 11 10 11 11 11 10 11 10 10 11 11 18 14 14 18 14 8 8 8 9 8 8 7
Height
3044 3047 3050 3054 3058 3063 3067 3071 3074 3077 3080 3083 3086 3090 3093 3095 3098 3100 3103 3106 3108 3107 3111 3114 3115 3117 3120 3123 3125 3128 3134 3139 3143 3145 3147 3149 3150 3154 3157 3159 3162 3165 3167
3040 3044 3047 3051 3054 3058 3062 3065 3068 3072 3075 3078 3080 3084 3088 3089 3092 3094 3096 3098 3102 3102 3103 3107 3109 3111 3114 3114 3117 3118 3123 3126 3132 3136 3138 3140 3144 3145 3148 3152 3155 3158 3161
3034 3038 3042 3046 3050 3053 3056 3059 3062 3065 3069 3072 3075 3078 3079 3081 3085 3086 3088 3091 3095 3096 3098 3099 3104 3106 3110 3110 3111 3113 3115 3119 3123 3127 3128 3129 3132 3136 3138 3142 3148 3151 3154
3028 3032 3036 3040 3044 3047 3050 3053 3057 3059 3062 3065 3068 3070 3074 3075 3078 3080 3082 3086 3087 3088 3091 3095 3096 3101 3106 3106 3106 3106 3109 3111 3114 3117 3120 3121 3125 3129 3133 3132 3135 3142 3146
3022 3026 3030 3034 3037 3041 3044 3047 3050 3053 3055 3059 3062 3065 3067 3070 3070 3072 3076 3079 3080 3082 3086 3087 3089 3093 3098 3100 3103 3102 3103 3104 3107 3109 3114 3113 3118 3121 3123 3125 3127 3132 3137
3016 3020 3024 3028 3031 3034 3037 3041 3044 3047 3050 3052 3055 3058 3062 3062 3064 3067 3069 3071 3074 3077 3081 3082 3084 3089 3090 3092 3094 3096 3098 3098 3100 3102 3104 3108 3112 3115 3117 3117 3119 3122 3129
3012 3016 3019 3022 3026 3029 3032 3035 3039 3041 3044 3047 3049 3051 3053 3057 3059 3061 3064 3066 3069 3070 3073 3076 3078 3080 3083 3085 3088 3090 3092 3094 3096 3098 3100 3101 3104 3107 3110 3110 3112 3115 3119
3007 3011 3015 3018 3021 3024 3027 3030 3033 3036 3038 3040 3043 3045 3047 3049 3052 3055 3058 3059 3062 3065 3067 3068 3071 3073 3076 3079 3081 3084 3085 3088 3091 3093 3094 3097 3099 3103 3105 3107 3108 3108 3114
3003 3007 3010 3013 3016 3019 3021 3024 3026 3028 3031 3033 3036 3038 3041 3043 3045 3048 3050 3053 3055 3058 3061 3064 3066 3068 3071 3072 3074 3077 3080 3082 3085 3087 3087 3089 3093 3095 3098 3101 3106 3110 3112
2998 3001 3005 3007 3009 3012 3015 3017 3019 3021 3023 3026 3029 3031 3034 3036 3039 3042 3044 3046 3048 3051 3054 3057 3060 3062 3064 3066 3068 3070 3073 3075 3076 3080 3082 3082 3085 3089 3091 3093 3096 3100 3103
2994 2996 2998 3001 3003 3006 3008 3011 3013 3015 3017 3019 3022 3024 3027 3029 3032 3034 3037 3040 3043 3046 3049 3051 3053 3056 3057 3060 3063 3065 3067 3068 3070 3072 3075 3076 3078 3081 3086 3085 3091 3092 3093
2991 2993 2994 2996 2998 3000 3003 3005 3007 3009 3011 3013 3015 3018 3021 3023 3026 3028 3030 3033 3035 3038 3040 3043 3046 3049 3051 3054 3056 3058 3060 3062 3064 3066 3067 3069 3071 3075 3077 3080 3082 3085 3086
2989 2991 2993 2994 2996 2997 2999 3000 3002 3004 3006 3008 3010 3012 3014 3016 3019 3022 3024 3026 3029 3032 3034 3037 3039 3042 3045 3047 3049 3050 3053 3055 3057 3058 3061 3062 3065 3066 3069 3071 3074 3076 3078
2988 2989 2991 2992 2994 2996 2997 2998 2999 3000 3001 3002 3004 3006 3008 3011 3013 3016 3018 3021 3023 3026 3028 3030 3033 3036 3038 3040 3041 3043 3045 3047 3049 3051 3053 3055 3058 3060 3062 3064 3067 3067 3069
2986 2987 2988 2990 2992 2993 2994 2995 2996 2997 2998 2999 3000 3002 3003 3005 3007 3010 3013 3015 3017 3019 3022 3024 3026 3028 3029 3031 3033 3036 3038 3039 3041 3043 3044 3047 3050 3052 3054 3056 3058 3059 3060
2984 2985 2986 2988 2989 2990 2990 2991 2992 2993 2994 2995 2996 2997 2999 3000 3002 3004 3006 3008 3010 3012 3014 3017 3019 3021 3023 3025 3027 3029 3030 3032 3034 3036 3037 3040 3042 3044 3045 3048 3048 3049 3050
2982 2983 2984 2984 2984 2985 2986 2986 2987 2987 2988 2989 2990 2992 2993 2995 2997 2998 2999 3001 3003 3005 3007 3009 3011 3014 3016 3017 3020 3021 3023 3024 3026 3028 3030 3032 3033 3034 3036 3038 3039 3039 3040
2980 2980 2980 2980 2979 2979 2980 2980 2980 2981 2981 2982 2983 2985 2986 2988 2989 2991 2992 2993 2995 2998 2999 3001 3003 3005 3007 3008 3011 3012 3014 3017 3018 3020 3021 3022 3024 3026 3028 3028 3029 3030 3030
2977 2977 2976 2976 2975 2974 2974 2973 2973 2973 2974 2975 2976 2976 2978 2979 2981 2982 2984 2985 2987 2989 2991 2993 2995 2997 2998 3000 3001 3002 3005 3007 3010 3011 3013 3014 3016 3016 3017 3018 3020 3021 3021
2972 2972 2971 2970 2969 2968 2967 2967 2966 2965 2965 2966 2967 2968 2969 2971 2972 2973 2974 2976 2978 2980 2982 2984 2986 2988 2990 2991 2993 2994 2995 2997 3000 3001 3003 3004 3006 3007 3009 3009 3011 3012 3010
2966 2965 2965 2964 2962 2961 2961 2960 2958 2957 2958 2958 2958 2959 2960 2962 2963 2964 2965 2966 2967 2970 2972 2975 2976 2978 2981 2982 2983 2985 2986 2989 2990 2992 2994 2994 2995 2997 2999 3000 3002 3002 3003
2958 2957 2956 2956 2954 2953 2952 2951 2950 2949 2949 2949 2949 2950 2951 2952 2953 2955 2955 2956 2957 2959 2961 2963 2965 2967 2970 2971 2973 2974 2976 2978 2980 2982 2984 2985 2986 2988 2989 2990 2991 2992 2992
2948 2947 2946 2946 2944 2943 2942 2942 2940 2940 2940 2940 2941 2941 2942 2943 2944 2946 2946 2947 2948 2950 2951 2952 2954 2956 2957 2958 2961 2964 2965 2967 2969 2973 2974 2975 2976 2978 2979 2981 2982 2983 2984
2935 2934 2934 2934 2934 2932 2932 2932 2931 2930 2931 2931 2931 2932 2934 2935 2936 2937 2938 2939 2940 2941 2942 2943 2945 2946 2947 2948 2949 2950 2952 2955 2958 2962 2964 2965 2966 2968 2971 2973 2973 2974 2976
2922 2922 2922 2922 2922 2920 2921 2920 2920 2921 2922 2922 2922 2923 2924 2925 2926 2928 2929 2930 2930 2932 2933 2934 2935 2936 2938 2939 2938 2940 2942 2944 2947 2948 2951 2953 2956 2960 2962 2964 2965 2966 2967
2910 2909 2909 2909 2910 2910 2910 2910 2910 2911 2912 2914 2914 2915 2916 2916 2917 2918 2919 2919 2921 2921 2923 2924 2925 2927 2928 2929 2929 2930 2931 2933 2935 2934 2939 2943 2946 2950 2953 2954 2955 2956 2958